Location: Unspecified
(0.0000°N, 0.0000°E)
Time: 18:29:53
(UTC+00:00)

SR - Pass Details

Date: 03 August 2021
Orbit: 581 x 874 km, 66.7° (Epoch: 25 September)

Event Time Altitude Azimuth Distance (km) Brightness Sun altitude
Exits shadow 05:21:31 12° 270° (W) 2,379 ? -10.7°
Maximum altitude 05:23:26 14° 290° (WNW) 2,256 ? -10.2°
Drops below altitude 10° 05:26:16 10° 320° (NW) 2,508 ? -9.5°
Sets 05:30:06 0° 345° (NNW) 3,420 ? -8.6°
